Weather History for LEPA - March, 2014

Change the Weather History Date:

Saturday, March 29, 2014

  Actual Average Record
Temperature  
Mean Temperature 58 °F -  
Max Temperature 64 °F 66 °F - ()
Min Temperature 53 °F 46 °F - ()
Degree Days  
Heating Degree Days 6    
Growing Degree Days 8 (Base 50)    
Moisture  
Dew Point 50 °F    
Average Humidity 71    
Maximum Humidity 88    
Minimum Humidity 49    
Precipitation  
Precipitation 0.00 in 0.05 in - ()
Sea Level Pressure  
Sea Level Pressure 29.79 in    
Wind  
Wind Speed 13 mph ()    
Max Wind Speed 24 mph    
Max Gust Speed 32 mph    
Visibility 6.1 miles    
Events      
T = Trace of Precipitation, MM = Missing Value Source: Averaged Metar Reports

Daily Weather History Graph

Daily Weather History Graph

Search for Another Location

Airport or City:

Trip Planner

Search our weather history database for the weather conditions in past years. The results will help you decide how hot, cold, wet, or windy it might be!

Date:

Astronomy

Mar. 29, 2014 Rise Set
Actual Time 6:38 AM CET 7:09 PM CET
Civil Twilight 6:11 AM CET 7:36 PM CET
Nautical Twilight 5:39 AM CET 8:08 PM CET
Astronomical Twilight 5:07 AM CET 8:41 PM CET
Moon 5:37 AM CET (3/29) 5:57 PM CET (3/29)
Length of Visible Light 13h 25m
Length of Day
12h 31m
Waning Crescent, 2% of the Moon is Illuminated
Mar 29
Waning Crescent
Mar 30
New
Apr 7
First Quarter
Apr 15
Full
Apr 22
Last Quarter

Hourly Weather History & Observations

Time (CET) Temp. Dew Point Humidity Pressure Visibility Wind Dir Wind Speed Gust Speed Precip Events Conditions
12:00 AM 55 °F 47 °F 68% 29.91 in - ENE 16.1 mph - -  
12:00 AM 55.4 °F 48.2 °F 77% 29.89 in 6.2 mi ENE 12.7 mph - N/A   Partly Cloudy
12:30 AM 55.4 °F 46.4 °F 72% 29.89 in 6.2 mi ENE 10.4 mph - N/A   Partly Cloudy
1:00 AM 55 °F 47 °F 66% 29.90 in 12 mi NE 11.5 mph - -   Scattered Clouds
1:00 AM 55.4 °F 46.4 °F 72% 29.89 in 6.2 mi NE 10.4 mph - N/A   Partly Cloudy
2:00 AM 55 °F 47 °F 66% 29.88 in - NE 15.0 mph - -  
2:00 AM 55.4 °F 46.4 °F 72% 29.86 in 6.2 mi ENE 12.7 mph - N/A   Partly Cloudy
2:30 AM 55.4 °F 46.4 °F 72% 29.86 in 6.2 mi ENE 12.7 mph - N/A   Partly Cloudy
3:00 AM 55 °F 47 °F 68% 29.85 in - ENE 17.3 mph - -  
3:00 AM 55.4 °F 48.2 °F 77% 29.83 in 6.2 mi ENE 13.8 mph - N/A   Partly Cloudy
3:30 AM 55.4 °F 48.2 °F 77% 29.83 in 6.2 mi ENE 13.8 mph - N/A   Partly Cloudy
4:00 AM 54 °F 48 °F 73% 29.82 in 12 mi ENE 17.3 mph - -   Scattered Clouds
4:00 AM 55.4 °F 48.2 °F 77% 29.80 in 6.2 mi ENE 13.8 mph - N/A   Partly Cloudy
4:30 AM 55.4 °F 48.2 °F 77% 29.80 in 6.2 mi ENE 12.7 mph - N/A   Partly Cloudy
5:00 AM 55 °F 48 °F 71% 29.81 in - NE 13.8 mph - -  
5:00 AM 55.4 °F 48.2 °F 77% 29.80 in 6.2 mi ENE 12.7 mph - N/A   Partly Cloudy
5:30 AM 55.4 °F 48.2 °F 77% 29.80 in 6.2 mi ENE 13.8 mph - N/A   Partly Cloudy
6:00 AM 55 °F 48 °F 70% 29.80 in - ENE 15.0 mph - -  
6:00 AM 55.4 °F 48.2 °F 77% 29.80 in 6.2 mi ENE 13.8 mph - N/A   Partly Cloudy
6:30 AM 55.4 °F 48.2 °F 77% 29.77 in 6.2 mi ENE 12.7 mph - N/A   Partly Cloudy
7:00 AM 56 °F 49 °F 69% 29.80 in 12 mi ENE 16.1 mph - -   Scattered Clouds
7:00 AM 55.4 °F 48.2 °F 77% 29.77 in 6.2 mi ENE 12.7 mph - N/A   Partly Cloudy
7:30 AM 55.4 °F 50.0 °F 82% 29.80 in 6.2 mi ENE 12.7 mph - N/A   Partly Cloudy
8:00 AM 57 °F 50 °F 69% 29.81 in - ENE 15.0 mph - -  
8:00 AM 57.2 °F 50.0 °F 77% 29.80 in 6.2 mi NE 10.4 mph - N/A   Partly Cloudy
8:30 AM 57.2 °F 50.0 °F 77% 29.80 in 6.2 mi ENE 12.7 mph - N/A   Partly Cloudy
9:00 AM 59 °F 51 °F 67% 29.79 in - East 16.1 mph - -  
9:00 AM 59.0 °F 51.8 °F 77% 29.77 in 6.2 mi ENE 13.8 mph - N/A   Partly Cloudy
9:30 AM 59.0 °F 50.0 °F 72% 29.77 in 6.2 mi ENE 17.3 mph - N/A   Partly Cloudy
10:00 AM 62 °F 51 °F 57% 29.80 in 9 mi East 21.9 mph - -   Overcast
10:00 AM 60.8 °F 50.0 °F 68% 29.77 in 6.2 mi East 20.7 mph - N/A   Partly Cloudy
10:30 AM 62.6 °F 50.0 °F 63% 29.80 in 6.2 mi ENE 16.1 mph 27.6 mph N/A   Partly Cloudy
11:00 AM 63 °F 50 °F 52% 29.79 in - East 23.0 mph - -  
11:00 AM 62.6 °F 50.0 °F 63% 29.77 in 6.2 mi East 16.1 mph - N/A   Partly Cloudy
11:30 AM 62.6 °F 50.0 °F 63% 29.77 in 6.2 mi East 15.0 mph - N/A   Partly Cloudy
12:00 PM 64 °F 49 °F 49% 29.78 in - East 20.7 mph - -  
12:00 PM 62.6 °F 50.0 °F 63% 29.77 in 5.6 mi East 13.8 mph - N/A   Partly Cloudy
12:30 PM 62.6 °F 50.0 °F 63% 29.77 in 5.6 mi East 18.4 mph 29.9 mph N/A   Partly Cloudy
1:00 PM 64 °F 50 °F 50% 29.77 in 7 mi East 20.7 mph - -   Overcast
1:00 PM 62.6 °F 50.0 °F 63% 29.77 in 5.6 mi East 13.8 mph 27.6 mph N/A   Partly Cloudy
1:30 PM 62.6 °F 50.0 °F 63% 29.74 in 5.6 mi East 17.3 mph 32.2 mph N/A   Partly Cloudy
2:00 PM 64 °F 50 °F 51% 29.75 in - East 23.0 mph - -  
2:00 PM 62.6 °F 50.0 °F 63% 29.74 in 5.6 mi East 17.3 mph - N/A   Partly Cloudy
2:30 PM 62.6 °F 50.0 °F 63% 29.74 in 5.6 mi East 16.1 mph - N/A   Partly Cloudy
3:00 PM 62 °F 50 °F 56% 29.74 in - East 24.2 mph - -  
3:00 PM 62.6 °F 50.0 °F 63% 29.71 in 6.2 mi East 17.3 mph - N/A   Partly Cloudy
3:30 PM 62.6 °F 51.8 °F 68% 29.71 in 5.6 mi East 18.4 mph - N/A   Partly Cloudy
4:00 PM 62 °F 51 °F 58% 29.74 in 7 mi East 18.4 mph - -   Overcast
4:00 PM 60.8 °F 51.8 °F 72% 29.71 in 5.6 mi East 16.1 mph - N/A   Partly Cloudy
4:30 PM 60.8 °F 51.8 °F 72% 29.71 in 5.6 mi East 13.8 mph - N/A   Partly Cloudy
5:00 PM 60 °F 51 °F 64% 29.74 in - East 16.1 mph - -  
5:00 PM 60.8 °F 51.8 °F 72% 29.74 in 5.6 mi East 15.0 mph - N/A   Partly Cloudy
5:30 PM 60.8 °F 51.8 °F 72% 29.74 in 5.0 mi East 13.8 mph - N/A   Partly Cloudy
6:00 PM 60 °F 51 °F 65% 29.74 in - ENE 15.0 mph - -  
6:00 PM 60.8 °F 51.8 °F 72% 29.74 in 5.0 mi ENE 13.8 mph - N/A   Partly Cloudy
6:30 PM 59.0 °F 51.8 °F 77% 29.74 in 5.0 mi ENE 10.4 mph - N/A   Partly Cloudy
7:00 PM 59 °F 51 °F 67% 29.77 in 5 mi ENE 12.7 mph - -   Mist
7:00 PM 59.0 °F 51.8 °F 77% 29.74 in 5.0 mi ENE 9.2 mph - N/A   Partly Cloudy
7:30 PM 57.2 °F 50.0 °F 77% 29.77 in 5.0 mi NE 10.4 mph - N/A   Partly Cloudy
8:00 PM 58 °F 51 °F 71% 29.78 in - ENE 10.4 mph - -  
8:00 PM 57.2 °F 50.0 °F 77% 29.77 in 5.0 mi ENE 11.5 mph - N/A   Partly Cloudy
8:30 PM 57.2 °F 50.0 °F 77% 29.77 in 5.0 mi ENE 10.4 mph - N/A   Partly Cloudy
9:00 PM 57 °F 51 °F 74% 29.81 in - ENE 10.4 mph - -  
9:00 PM 57.2 °F 51.8 °F 82% 29.80 in 5.0 mi ENE 6.9 mph - N/A   Partly Cloudy
9:30 PM 57.2 °F 51.8 °F 82% 29.80 in 5.0 mi ENE 8.1 mph - N/A   Partly Cloudy
10:00 PM 57 °F 52 °F 77% 29.83 in 4 mi NE 9.2 mph - -   Mist
10:00 PM 57.2 °F 51.8 °F 82% 29.80 in 4.3 mi ENE 9.2 mph - N/A   Partly Cloudy
10:30 PM 55.4 °F 51.8 °F 88% 29.80 in 4.3 mi ENE 9.2 mph - N/A   Partly Cloudy
11:00 PM 54 °F 51 °F 86% 29.81 in - East 5.8 mph - -  
11:00 PM 53.6 °F 50.0 °F 88% 29.80 in 4.3 mi ENE 9.2 mph - N/A   Partly Cloudy
11:30 PM 53.6 °F 50.0 °F 88% 29.83 in 4.3 mi ENE 5.8 mph - N/A   Partly Cloudy